Weather History for KPAN - October, 2012

Change the Weather History Date:

Thursday, October 18, 2012

  Actual Average Record
Temperature  
Mean Temperature 60 °F -  
Max Temperature 73 °F 74 °F 80 °F (2011)
Min Temperature 48 °F 38 °F 44 °F (2013)
Degree Days  
Heating Degree Days 4    
Growing Degree Days 10 (Base 50)    
Moisture  
Dew Point 32 °F    
Average Humidity 34    
Maximum Humidity 58    
Minimum Humidity 16    
Precipitation  
Precipitation 0.00 in - - ()
Sea Level Pressure  
Sea Level Pressure 30.18 in    
Wind  
Wind Speed 5 mph (WNW)    
Max Wind Speed 12 mph    
Max Gust Speed 17 mph    
Visibility 10 miles    
Events      
Averages and records for this station are not official NWS values.
T = Trace of Precipitation, MM = Missing Value Source: NWS Daily Summary

Daily Weather History Graph

Daily Weather History Graph

Search for Another Location

Airport or City:

Trip Planner

Search our weather history database for the weather conditions in past years. The results will help you decide how hot, cold, wet, or windy it might be!

Date:

Astronomy

Oct. 18, 2012 Rise Set
Actual Time 6:33 AM MST 5:46 PM MST
Civil Twilight 6:08 AM MST 6:12 PM MST
Nautical Twilight 5:38 AM MST 6:41 PM MST
Astronomical Twilight 5:09 AM MST 7:10 PM MST
Moon 10:10 AM MST (10/18) 8:33 PM MST (10/18)
Length of Visible Light 12h 03m
Length of Day
11h 13m
Waxing Crescent, 15% of the Moon is Illuminated
Oct 18
Waxing Crescent
Oct 21
First Quarter
Oct 29
Full
Nov 6
Last Quarter
Nov 13
New

Hourly Weather History & Observations

Time (MST) Temp. Dew Point Humidity Pressure Visibility Wind Dir Wind Speed Gust Speed Precip Events Conditions
12:15 AM 53.6 °F 33.8 °F 47% 30.16 in 10.0 mi NW 4.6 mph - N/A   Clear
12:35 AM 53.6 °F 33.8 °F 47% 30.16 in 10.0 mi NW 4.6 mph - N/A   Clear
12:55 AM 53.6 °F 33.8 °F 47% 30.17 in 10.0 mi NW 4.6 mph - N/A   Clear
1:15 AM 53.6 °F 32.0 °F 44% 30.17 in 10.0 mi NW 4.6 mph - N/A   Clear
1:35 AM 53.6 °F 33.8 °F 47% 30.17 in 10.0 mi NW 4.6 mph - N/A   Clear
1:55 AM 53.6 °F 33.8 °F 47% 30.17 in 10.0 mi WNW 3.5 mph - N/A   Clear
2:15 AM 53.6 °F 33.8 °F 47% 30.17 in 10.0 mi WNW 3.5 mph - N/A   Clear
2:35 AM 53.6 °F 33.8 °F 47% 30.17 in 10.0 mi WNW 3.5 mph - N/A   Clear
2:55 AM 53.6 °F 33.8 °F 47% 30.17 in 10.0 mi WNW 4.6 mph - N/A   Clear
3:15 AM 51.8 °F 33.8 °F 50% 30.17 in 10.0 mi WNW 3.5 mph - N/A   Clear
3:35 AM 51.8 °F 33.8 °F 50% 30.17 in 10.0 mi WNW 3.5 mph - N/A   Clear
3:55 AM 51.8 °F 33.8 °F 50% 30.17 in 10.0 mi WNW 4.6 mph - N/A   Clear
4:15 AM 51.8 °F 33.8 °F 50% 30.17 in 10.0 mi WNW 3.5 mph - N/A   Clear
4:35 AM 51.8 °F 33.8 °F 50% 30.17 in 10.0 mi WNW 3.5 mph - N/A   Clear
4:55 AM 51.8 °F 33.8 °F 50% 30.18 in 10.0 mi WNW 3.5 mph - N/A   Clear
5:15 AM 51.8 °F 33.8 °F 50% 30.18 in 10.0 mi Calm Calm - N/A   Clear
5:55 AM 50.0 °F 33.8 °F 54% 30.18 in 10.0 mi WNW 3.5 mph - N/A   Clear
6:15 AM 50.0 °F 33.8 °F 54% 30.19 in 10.0 mi WNW 3.5 mph - N/A   Clear
6:35 AM 48.2 °F 33.8 °F 58% 30.19 in 10.0 mi NW 4.6 mph - N/A   Clear
6:55 AM 48.2 °F 32.0 °F 54% 30.19 in 10.0 mi Calm Calm - N/A   Clear
7:15 AM 51.8 °F 32.0 °F 47% 30.20 in 10.0 mi Calm Calm - N/A   Clear
7:35 AM 57.2 °F 28.4 °F 33% 30.21 in 10.0 mi NNE 5.8 mph - N/A   Clear
7:55 AM 59.0 °F 23.0 °F 25% 30.21 in 10.0 mi NNE 6.9 mph - N/A   Clear
8:15 AM 62.6 °F 21.2 °F 20% 30.22 in 10.0 mi NNE 5.8 mph - N/A   Clear
8:35 AM 64.4 °F 21.2 °F 19% 30.23 in 10.0 mi NNE 3.5 mph - N/A   Clear
8:55 AM 64.4 °F 24.8 °F 22% 30.23 in 10.0 mi Calm Calm - N/A   Clear
9:15 AM 66.2 °F 28.4 °F 24% 30.23 in 9.0 mi Calm Calm - N/A   Clear
9:35 AM 68.0 °F 30.2 °F 24% 30.23 in 10.0 mi SSE 3.5 mph - N/A   Clear
9:55 AM 68.0 °F 32.0 °F 26% 30.23 in 10.0 mi Calm Calm - N/A   Clear
10:15 AM 69.8 °F 30.2 °F 23% 30.23 in 10.0 mi West 4.6 mph - N/A   Clear
10:35 AM 69.8 °F 32.0 °F 25% 30.23 in 10.0 mi WSW 4.6 mph - N/A   Clear
10:55 AM 71.6 °F 32.0 °F 23% 30.23 in 10.0 mi South 4.6 mph - N/A   Clear
11:15 AM 69.8 °F 32.0 °F 25% 30.23 in 10.0 mi Calm Calm - N/A   Clear
11:35 AM 71.6 °F 32.0 °F 23% 30.22 in 10.0 mi SW 5.8 mph - N/A   Clear
11:55 AM 71.6 °F 32.0 °F 23% 30.22 in 10.0 mi SSW 4.6 mph - N/A   Clear
12:15 PM 73.4 °F 32.0 °F 22% 30.21 in 10.0 mi WSW 9.2 mph - N/A   Clear
12:35 PM 73.4 °F 30.2 °F 20% 30.20 in 10.0 mi WSW 4.6 mph - N/A   Partly Cloudy
12:55 PM 73.4 °F 32.0 °F 22% 30.20 in 10.0 mi West 9.2 mph - N/A   Scattered Clouds
1:15 PM 71.6 °F 32.0 °F 23% 30.19 in 10.0 mi West 10.4 mph - N/A   Partly Cloudy
1:35 PM 73.4 °F 32.0 °F 22% 30.18 in 10.0 mi West 11.5 mph 16.1 mph N/A   Clear
1:55 PM 73.4 °F 32.0 °F 22% 30.17 in 10.0 mi West 11.5 mph 16.1 mph N/A   Partly Cloudy
2:15 PM 73.4 °F 30.2 °F 20% 30.17 in 10.0 mi West 9.2 mph 16.1 mph N/A   Clear
2:35 PM 73.4 °F 32.0 °F 22% 30.16 in 10.0 mi WSW 9.2 mph - N/A   Partly Cloudy
2:55 PM 73.4 °F 30.2 °F 20% 30.16 in 10.0 mi WSW 9.2 mph - N/A   Clear
3:15 PM 73.4 °F 32.0 °F 22% 30.16 in 10.0 mi West 10.4 mph - N/A   Clear
3:35 PM 73.4 °F 32.0 °F 22% 30.15 in 10.0 mi WSW 10.4 mph - N/A   Clear
3:55 PM 73.4 °F 32.0 °F 22% 30.15 in 10.0 mi WSW 9.2 mph 17.3 mph N/A   Clear
4:15 PM 73.4 °F 32.0 °F 22% 30.14 in 10.0 mi WSW 11.5 mph - N/A   Clear
4:35 PM 73.4 °F 32.0 °F 22% 30.14 in 10.0 mi West 9.2 mph - N/A   Clear
4:55 PM 73.4 °F 33.8 °F 23% 30.14 in 10.0 mi West 10.4 mph - N/A   Clear
5:15 PM 71.6 °F 33.8 °F 25% 30.14 in 10.0 mi West 10.4 mph - N/A   Clear
5:35 PM 71.6 °F 35.6 °F 27% 30.14 in 10.0 mi West 9.2 mph - N/A   Clear
5:55 PM 68.0 °F 39.2 °F 35% 30.15 in 10.0 mi West 8.1 mph - N/A   Clear
6:15 PM 66.2 °F 41.0 °F 40% 30.15 in 10.0 mi West 8.1 mph - N/A   Clear
6:35 PM 64.4 °F 42.8 °F 45% 30.16 in 10.0 mi WNW 6.9 mph - N/A   Clear
6:55 PM 64.4 °F 42.8 °F 45% 30.17 in 10.0 mi NW 6.9 mph - N/A   Clear
7:15 PM 64.4 °F 42.8 °F 45% 30.17 in 10.0 mi NW 5.8 mph - N/A   Clear
7:35 PM 62.6 °F 42.8 °F 48% 30.17 in 10.0 mi NW 4.6 mph - N/A   Clear
7:55 PM 62.6 °F 42.8 °F 48% 30.18 in 10.0 mi NNW 6.9 mph - N/A   Clear
8:15 PM 62.6 °F 32.0 °F 32% 30.18 in 10.0 mi North 6.9 mph - N/A   Clear
8:35 PM 62.6 °F 24.8 °F 24% 30.18 in 10.0 mi NNE 4.6 mph - N/A   Clear
8:55 PM 60.8 °F 19.4 °F 20% 30.18 in 10.0 mi North 5.8 mph - N/A   Clear
11:35 PM 55.4 °F 17.6 °F 23% 30.18 in 10.0 mi NNW 3.5 mph - N/A   Clear
11:55 PM 57.2 °F 10.4 °F 16% 30.18 in 10.0 mi Calm Calm - N/A   Clear